Regional Weather Roundup
Issued by NWS Newport/Morehead, NC

Current Version | Previous Version | Graphics & Text | Print | Product List | Glossary Off
Versions: 1 2 3 4 5 6 7 8 9 10 11 12 13 14 15 16 17 18 19 20 21 22 23 24 25 26 27 28 29 30 31 32 33 34 35 36 37 38 39 40 41 42 43 44 45 46 47 48 49 50
000 ASUS42 KMHX 291425 RWRMHX WEATHER ROUNDUP FOR EASTERN NORTH CAROLINA NATIONAL WEATHER SERVICE NEWPORT/MOREHEAD CITY NC 1000 AM EDT SUN MAY 29 2016 NOTE: "FAIR" INDICATES FEW OR NO CLOUDS BELOW 12,000 FEET WITH NO SIGNIFICANT WEATHER AND/OR OBSTRUCTIONS TO VISIBILITY NCZ015>017-031-032-045>047-102-103-291500- NORTH COAST CITY SKY/WX TMP DP RH WIND PRES REMARKS EDENTON LGT RAIN N/A N/A N/A E5 30.12S ELIZABETH CITY CLOUDY 79 73 82 E13 30.12F KITTY HAWK MOSUNNY 82 72 71 SE7 30.12S MANTEO NOT AVBL $$ NCZ045>047-081-094-103-104-291500- CENTRAL COAST CITY SKY/WX TMP DP RH WIND PRES REMARKS FRISCO PTSUNNY 80 73 79 SE14 30.11S $$ NCZ095-097-098-100-101-291500- SOUTHERN COAST CITY SKY/WX TMP DP RH WIND PRES REMARKS BEAUFORT CLOUDY 74 73 97 SE7 30.08S CEDAR ISLAND NOT AVBL JACKSONVILLE CLOUDY 79 75 87 SE9 30.05S PINEY ISLAND LGT RAIN N/A N/A N/A S10 30.09S WILMINGTON PTSUNNY 80 73 79 SE12 30.04R $$ NCZ011>013-027>030-043-044-078>080-089-090>093-098-291500- COASTAL PLAIN CITY SKY/WX TMP DP RH WIND PRES REMARKS AHOSKIE LGT RAIN 72 71 96 NE3 30.12S CLINTON LGT RAIN 74 74 100 NE5 30.07S ELIZABETHTOWN PTSUNNY 74 74 100 CALM 30.04F GOLDSBORO LGT RAIN 73 73 100 E9 30.07S GREENVILLE LGT RAIN 73 73 100 SE6 30.11S HAVELOCK RAIN 76 73 91 SE6 30.09S VSB 1 KENANSVILLE CLOUDY 73 73 98 CALM 30.08S KINSTON CLOUDY 75 73 94 E8 30.09S NEW BERN LGT RAIN 73 72 96 CALM 30.09F FOG RICHLANDS LGT RAIN 75 73 94 CALM 30.06F ROCKY MOUNT LGT RAIN 73 72 96 NE6 30.10F FOG WASHINGTON CLOUDY 73 71 93 E3 30.09F WHITEVILLE PTSUNNY 78 73 84 E8 30.01F $$ AMZ130-135-150-152-154-156-158-170-250-252-270-ANZ085-086-088-633-658-670-291500- MARINE OBSERVATIONS STATION/POSITION TIME TEMP WIND PRES WAVE SWELL AIR SEA DIR/SP/G HT/PER HT/PER (UTC) (F) (DEG/KT/KT) (MB) (FT/S) (FT/S) CHESAPEAKE LIGHT 1400 71 110/ 13/ 13 1021.3 64 E VA BEACH 1350 69 64 90/ 6/ 6 1020.9 4/ 6 3/ 6 DUCK 1400 73 62 110/ 12/ 13 1019.5 2 E DUCK 1311 69 N/A 3/ 6 OREGON INLET 1400 77 70 120/ 9/ 12 1019.9 13E OREGON INLT 1400 71 N/A 4/ 8 3/ 8 HATTERAS CG 1400 78 76 140/ 12/ 15 1018.9 DIAMOND BUOY 1350 79 76 150/ 17/ 21 1019.2 6/ 6 2/13 CAPE LOOKOUT 1400 75 130/ 9/ 10 1018.2 BEAUFORT LAB 1400 74 75 150/ 8/ 13 1017.8 30 SE NEW RVR IN 1325 75 N/A 6/ 7 27 SE WRIGHTSVLE 1408 79 75 150/ 14/ 17 1017.4 5 SE WRIGHTSVLE 1408 77 75 140/ 10/ 14 1018.0 225 S CAPE HAT 1350 76 75 120/ 12/ 16 1019.4 4/ 7 3/ 7 41 SE CHARLESTON 1350 75 78 200/ 19/ 23 1013.1 6/ 8 3/ 8 $$

USA.gov is the U.S. government's official web portal to all federal, state and local government web resources and services.